Volver al catálogo

GONETS D1 3

ActivoComunicacionesPO
NORAD 23789·PAYLOAD·🇷🇺 Russia

Lanzado Feb 19, 1996 desde Plesetsk Cosmodrome

Loading…

Próximos Pases (próximas 24 horas)

TLE

ActualizadoSource: Space-Track

Época: Sep 14, 2026, 10:22 UTC

1 23789U 96009C   26257.43216421  .00000005  00000-0 -31780-4 0  9997
2 23789  82.5732 262.8573 0004573 211.2051 148.8770 12.62687725408915

Sigue GONETS D1 3 en tiempo real con AllMySat

Download on the App Store